Location: Aniagüita
(10.0946°N, 66.9708°W)
Time: 15:17:49
(UTC+00:00)

Cosmos 292 Rocket - Pass Details

Date: 30 June 2022
Orbit: 672 x 693 km, 74.0° (Epoch: 07 August)

Event Time Altitude Azimuth Distance (km) Brightness Sun altitude
Rises 23:06:07 0° 192° (SSW) 3,028 7.0 -3.8°
Reaches altitude 10° 23:08:25 10° 192° (SSW) 2,110 6.2 -4.3°
Maximum altitude 23:13:10 90° 158° (SSE) 678 3.8 -5.4°
Drops below altitude 10° 23:17:54 10° 13° (NNE) 2,098 6.4 -6.5°
Sets 23:20:11 0° 13° (NNE) 3,010 7.2 -7.0°
